Location: Gwatt
(46.7204°N, 7.6223°E)
Time: 00:58:17
(UTC+00:00)

USA 238 - Pass Details

Date: 18 September 2020
Orbit: 1006 x 1206 km, 63.4° (Epoch: 28 October)

Event Time Altitude Azimuth Distance (km) Brightness Sun altitude
Rises 19:32:28 0° 320° (NW) 3,941 7.8 -20.3°
Reaches altitude 10° 19:35:06 10° 320° (NW) 3,008 7.0 -20.7°
Maximum altitude 19:42:21 89° 52° (NE) 1,169 3.8 -21.8°
Enters shadow 19:45:45 36° 141° (SE) 1,764 4.3 -22.4°
